This is the latest recevied weather packets stored in our database for station/object KC4JY. If no packets are shown the sender has not sent any weather packets the latest 10 day(s).
| Time | Temp. | Humidity | Pressure | Rain* | Wind** | Luminosity | Snow |
|---|---|---|---|---|---|---|---|
| 1778103906 | 27.78° C | 52% | 1011.4 hPa | 0 mm | - | - | - |
| 1778103006 | 27.22° C | 54% | 1011.4 hPa | 0 mm | - | - | - |
| 1778102112 | 26.67° C | 53% | 1011.4 hPa | 0 mm | - | - | - |
| 1778101208 | 26.67° C | 53% | 1010.7 hPa | 0 mm | - | - | - |
| 1778100303 | 26.67° C | 52% | 1011.1 hPa | 0 mm | - | - | - |
| 1778098569 | 27.22° C | 50% | 1012.6 hPa | 0 mm | - | - | - |
| 1778097660 | 27.78° C | 49% | 1012.8 hPa | 0 mm | - | - | - |
| 1778096769 | 28.33° C | 48% | 1012.7 hPa | 0 mm | - | - | - |
| 1778094954 | 27.78° C | 48% | 1013.1 hPa | 0 mm | - | - | - |
| 1778094054 | 28.33° C | 48% | 1013.2 hPa | 0 mm | - | - | - |
| 1778093161 | 27.78° C | 49% | 1013.5 hPa | 0 mm | - | - | - |
| 1778091326 | 27.22° C | 48% | 1013.9 hPa | 0 mm | - | - | - |
| 1778090424 | 27.78° C | 48% | 1014 hPa | 0 mm | - | - | - |
| 1778089504 | 26.67° C | 51% | 1014 hPa | 0 mm | - | - | - |
| 1778088601 | 26.11° C | 52% | 1014.1 hPa | 0 mm | - | - | - |
| 1778087743 | 26.11° C | 53% | 1014 hPa | 0 mm | - | - | - |
| 1778086860 | 26.11° C | 54% | 1014.5 hPa | 0 mm | - | - | - |
| 1778085923 | 26.11° C | 54% | 1014.3 hPa | 0 mm | - | - | - |
| 1778085021 | 26.11° C | 53% | 1014.4 hPa | 0 mm | - | - | - |
| 1778084102 | 25.56° C | 53% | 1014.6 hPa | 0 mm | - | - | - |
| 1778083269 | 26.67° C | 54% | 1015 hPa | 0 mm | - | - | - |
| 1778082342 | 26.11° C | 56% | 1015.1 hPa | 0 mm | - | - | - |
| 1778081438 | 25.56° C | 58% | 1015.2 hPa | 0 mm | - | - | - |
| 1778080519 | 25.56° C | 60% | 1015.3 hPa | 0 mm | - | - | - |
| 1778079617 | 25° C | 62% | 1015.3 hPa | 0 mm | - | - | - |
* Rain latest hour (hover to see other rain measurements)
** Current wind speed in m/s (hover to see current wind gust speed)